Tracking 19792 objects as of 16-Jul-2019
HD Live streaming from Space Station
objects crossing your sky now

SL-16 DEB

Track SL-16 DEB now!
10-day predictions


NORAD ID: 31794
Int'l Code: 2007-029C
Perigee: 849.3 km
Apogee: 1,156.6 km
Inclination: 71.0 °
Period: 105.0 minutes
Semi major axis: 7373 km
RCS: 0.083 m2 (small)
Launch date: June 29, 2007
Source: Commonwealth of Independent States (former USSR) (CIS)
Launch site: TYURATAM MISSILE AND SPACE COMPLEX (TTMTR)

Note: This is SATELLITE DEBRIS
aabbcc
Your satellite tracking list
Your tracking list is empty




NASA's NSSDC Master Catalog

Two Line Element Set (TLE):
1 31794U 07029C   19196.94632457 -.00000005 +00000-0 +37298-4 0  9997
2 31794 071.0403 185.6898 0208375 299.7096 085.5661 13.71059112602743
Source of the keplerian elements: AFSPC